Location: Prairie State College
(41.5244°N, 87.6382°W)
Time: 22:28:20
(UTC-05:00)

Cosmos 1140 Rocket - Visible Passes

Search period start: 16 September 2014 00:00
Search period end: 26 September 2014 00:00
Orbit: 747 x 768 km, 74.1° (Epoch: 16 September)

Date Brightness Start Highest point End Pass type
(mag) Time Alt. Az. Time Alt. Az. Time Alt. Az.
16 Sep 4.4 05:54:27 10° N 05:59:31 55° ENE 06:04:34 10° SE visible
16 Sep 4.1 20:29:43 10° SSW 20:34:46 58° WNW 20:39:50 10° NNE visible
17 Sep 5.5 05:14:36 10° N 05:19:10 31° ENE 05:23:43 10° SE visible
17 Sep 3.4 19:49:27 10° SSW 19:54:34 77° ESE 19:59:42 10° NNE visible
17 Sep 6.4 21:34:12 10° W 21:37:01 15° NW 21:39:51 10° NNW visible
18 Sep 6.3 04:35:08 10° NNE 04:38:40 18° ENE 04:42:11 10° E visible
18 Sep 5.8 20:52:17 10° WSW 20:56:27 25° WNW 21:00:39 10° N visible
19 Sep 6.8 03:56:58 10° NE 03:58:00 11° NE 03:59:03 10° ENE visible
19 Sep 3.7 05:35:36 10° NNW 05:40:46 75° ENE 05:45:56 10° SSE visible
19 Sep 4.8 20:11:11 10° SW 20:16:02 43° WNW 20:20:56 10° N visible
20 Sep 4.8 04:55:36 10° N 05:00:29 41° ENE 05:05:21 10° SE visible
20 Sep 3.6 19:30:39 10° SSW 19:35:46 79° WNW 19:40:55 10° NNE visible
20 Sep 6.7 21:17:07 10° WNW 21:18:30 11° NW 21:19:52 10° NW visible
21 Sep 5.8 04:15:55 10° N 04:20:04 24° ENE 04:24:12 10° ESE visible
21 Sep 3.8 05:57:12 10° NNW 06:02:04 43° WSW 06:06:56 10° S visible
21 Sep 6.2 20:34:15 10° WSW 20:37:51 19° WNW 20:41:27 10° NNW visible
22 Sep 6.4 03:36:46 10° NNE 03:39:29 14° NE 03:42:12 10° E visible
22 Sep 3.4 05:16:48 10° NNW 05:21:59 81° WSW 05:27:09 10° SSE visible
22 Sep 5.4 19:52:47 10° SW 19:57:21 32° WNW 20:01:57 10° N visible
23 Sep 4.1 04:36:41 10° NNW 04:41:46 56° ENE 04:46:50 10° SE visible
23 Sep 4.3 19:11:58 10° SSW 19:17:00 57° WNW 19:22:04 10° NNE visible
24 Sep 5.2 03:56:49 10° N 04:01:25 31° ENE 04:06:00 10° SE visible
24 Sep 4.1 05:38:39 10° NW 05:43:11 32° W 05:47:42 10° SSW visible
24 Sep 6.4 20:16:31 10° W 20:19:16 14° NW 20:22:02 10° NNW visible
25 Sep 6.0 03:17:20 10° NNE 03:20:55 19° ENE 03:24:30 10° E visible
25 Sep 3.4 04:58:04 10° NNW 05:03:09 59° WSW 05:08:14 10° S visible
25 Sep 5.9 19:34:33 10° WSW 19:38:42 24° WNW 19:42:52 10° N visible
